Regional Weather Roundup
Issued by NWS

Home | Current Version | Previous Version | Graphics & Text | Print | Product List | Glossary On
Versions: 1 2 3 4 5 6 7 8 9 10 11 12 13 14 15 16 17 18 19 20 21 22 23 24 25 26 27 28 29 30 31 32 33 34 35 36 37 38 39 40 41 42 43 44 45 46 47 48 49 50
000
ASUS43 KLMK 270710
RWRKY
KENTUCKY REGIONAL WEATHER ROUNDUP
NATIONAL WEATHER SERVICE LOUISVILLE KY
300 AM EDT FRI MAY 27 2016

NOTE "FAIR" INDICATES FEW OR NO CLOUDS BELOW 12,000 FEET
WITH NO SIGNIFICANT WEATHER AND/OR OBSTRUCTIONS TO VISIBILITY.

KYZ001>023-026-027-061>063-070>075-270800-
WESTERN AND SOUTH CENTRAL KENTUCKY

CITY           SKY/WX    TMP DP  RH WIND       PRES   REMARKS
PADUCAH        LGT RAIN  68  63  84 W3        29.94F
HENDERSON      CLOUDY    66  61  82 SE5       29.97R
OWENSBORO      CLOUDY    68  66  93 SE6       29.99F
HOPKINSVILLE   CLOUDY    67  65  95 SW3       30.00R
BOWLING GREEN  PTCLDY    65  63  93 CALM      30.00S
GLASGOW        CLOUDY    64  64 100 CALM      30.01S
$$

KYZ024-025-028>034-038-045-046-053-270800-
NORTH CENTRAL KENTUCKY

CITY           SKY/WX    TMP DP  RH WIND       PRES   REMARKS
LOUISVILLE/SDF MOCLDY    67  63  87 S7        30.01R
LOUISVILLE/LOU CLOUDY    66  63  90 CALM      30.02S
FORT KNOX      PTCLDY    63  63 100 E2        30.01R FOG
$$

KYZ035>037-039>044-047>052-055>060-089>105-270800-
NORTHEAST KENTUCKY

CITY           SKY/WX    TMP DP  RH WIND       PRES   REMARKS
LEXINGTON      PTCLDY    62  60  93 CALM      30.04S
COVINGTON      CLOUDY    63  62  97 S6        30.03S
FRANKFORT      MOCLDY    63  60  90 CALM      30.02F
$$

KYZ054-064>069-076>088-106>120-270800-
SOUTHEAST KENTUCKY

CITY           SKY/WX    TMP DP  RH WIND       PRES   REMARKS
JACKSON        CLOUDY    69  61  75 SE6       30.07F
LONDON         PTCLDY    65  60  84 CALM      30.06F
SOMERSET       PTCLDY    63  63 100 CALM      30.06F
MIDDLESBORO    CLEAR     60  60 100 CALM      30.10F
MONTICELLO     CLOUDY    63  61  93 NE8       30.06S
$$




USA.gov is the U.S. government's official web portal to all federal, state and local government web resources and services.